Allen's Hourly Summary for Thursday, March 16, 2017
Hour Temp
(f)
RH
(%)
Solar Rad.
(MJ/m2)
Rainfall
(in)
Wind
(mph)
3/16/2017 12:00 AM 50 62 0 0 1.97
3/16/2017 1:00 AM 50 64 0 0 2.03
3/16/2017 2:00 AM 49 66 0 0 2.13
3/16/2017 3:00 AM 49 68 0 0 3.97
3/16/2017 4:00 AM 49 71 0 0 4.22
3/16/2017 5:00 AM 50 77 0 0 5.22
3/16/2017 6:00 AM 51 82 0 0 6.31
3/16/2017 7:00 AM 53 86 0 0 5.92
3/16/2017 8:00 AM 53 87 0.01 0 5.89
3/16/2017 9:00 AM 54 88 0.08 0 6.15
3/16/2017 10:00 AM 54 86 0.25 0 4.96
3/16/2017 11:00 AM 55 83 0.54 0 5.4
3/16/2017 12:00 PM 57 81 0.54 0 5.72
3/16/2017 1:00 PM 58 78 0.65 0 5.21
3/16/2017 2:00 PM 60 73 0.81 0 5.53
3/16/2017 3:00 PM 63 72 0.78 0 6.06
3/16/2017 4:00 PM 64 71 0.68 0 6.26
3/16/2017 5:00 PM 66 67 0.85 0 6.06
3/16/2017 6:00 PM 68 65 0.72 0 8.49
3/16/2017 7:00 PM 68 66 0.28 0 7.6
3/16/2017 8:00 PM 68 65 0.04 0 6.53
3/16/2017 9:00 PM 67 69 0 0 5.63
3/16/2017 10:00 PM 65 71 0 0 5.18
3/16/2017 11:00 PM 63 76 0 0 4.98
Data Summary 57 73 6.23 0.00 5.31